User: anonymous   Login
Location: Wien
(48.2082°N, 16.3738°E)
Time: 10:23:03
(UTC+01:00)
Language:

Transit 2A Rocket - Orbit

View from above orbital plane
View from above orbital plane
View from above satellite
View from above satellite

Ground track
Ground track

The orbit data is extracted from the following two-line orbital elements,

1 00047U 60007C   24055.55876472  .00000478  00000-0  13026-3 0  9998
2 00047  66.6657 150.9604 0220055  35.5904 325.9649 14.43312548328965
Epoch (UTC): 24 February 2024 13:24:37
Eccentricity: 0.0220055
inclination: 66.6657°
perigee height: 591 km
apogee height: 904 km
right ascension of ascending node: 150.9604°
argument of perigee: 35.5904°
revolutions per day: 14.43312548
mean anomaly at epoch: 325.9649°
orbit number at epoch: 32896

The dashed part of the orbit path shows where the satellite is in the earth's shadow,  

DLR